SCP
0 0 0 0 0 -0 -0 0 -0 -0 -0 0 0 0 0 0 0 -0 0 -0 -0 -0 -0 -0 -0 -0 -0 -0 -0 -0 -0 -0 -0 -0 -0 0 0 0 0 0 0 0 0 0 0 0 -0 -0 -0
0 0 0 0 0 0 0 -0 -0 -0 -0 -0 0 0 0 0 0 -0 0 0 -0 -0 -0 -0 -0 -1 -0 -0 -0 -0 -0 -0 -0 -0 -0 0 0 0 0 0 0 0 0 0 -0 0 0 -0 -0
0 0 0 0 0 0 0 -0 -0 -0 -0 0 0 -0 0 0 0 0 -0 -0 -0 -0 -0 -0 -0 -0 -1 -0 -0 -0 -1 -0 -0 -0 -0 -0 0 0 0 0 0 0 0 0 -0 -0 0 0 -0
0 0 0 0 0 0 0 0 0 0 0 0 0 0 -0 0 0 0 0 -0 -0 -0 -0 -0 -0 -0 -0 -0 -0 -0 -1 -1 -0 -0 -0 -0 -0 0 0 0 0 0 0 0 0 -0 -0 0 0
0 0 0 0 0 -0 0 0 0 0 0 0 0 -0 0 0 -0 0 0 0 -0 -0 0 -0 -0 -0 -0 -0 -0 -0 -0 -0 -0 -0 -0 -0 -0 0 0 0 0 0 0 0 0 -0 -0 0 0
0 0 0 0 0 0 0 0 0 0 0 0 0 0 0 0 -0 0 0 0 0 -0 0 0 -0 -0 -0 -0 -0 -0 -0 -0 -0 -0 -0 -0 -0 0 0 0 0 0 0 0 -0 0 0 0 0
0 0 0 0 0 0 -0 0 0 0 0 0 0 0 0 0 0 0 0 0 0 0 0 0 0 0 0 0 -0 -0 -0 -0 -0 -0 -0 -0 -0 0 0 0 0 0 0 0 -0 -0 -0 -0 -0
0 0 0 0 0 0 0 0 0 0 0 0 0 0 0 0 0 0 0 0 0 1 0 0 0 0 0 0 0 0 0 0 0 0 0 -0 -0 0 0 0 0 0 0 0 0 -0 -0 -0 -0
0 0 0 0 0 0 0 0 0 0 0 0 0 0 0 0 0 -0 0 0 0 0 0 0 0 0 0 0 0 0 0 0 0 0 0 0 0 0 0 0 0 0 0 0 0 0 0 -0 -0
0 0 0 0 0 0 0 0 0 0 0 0 0 0 0 0 0 0 0 0 0 0 0 0 0 0 0 0 0 0 0 0 0 0 0 0 0 0 0 0 0 0 0 0 0 -0 0 0 0
0 0 0 0 0 0 0 0 0 0 0 0 0 0 0 0 0 0 0 0 0 0 1 0 0 0 0 0 0 0 0 0 0 0 0 0 0 0 0 0 0 0 0 0 0 0 0 0 0
0 0 0 0 0 0 0 0 0 0 0 0 0 0 0 0 0 0 0 0 0 0 0 0 0 0 0 0 0 0 0 0 0 0 0 0 0 0 0 0 0 0 0 0 0 0 0 0 0
0 0 -0 0 0 0 0 0 0 0 0 0 0 0 0 0 0 0 0 0 0 0 0 0 0 0 0 0 0 0 0 0 0 0 0 0 0 0 0 0 0 0 0 0 0 0 0 0 0
0 0 0 0 0 0 0 0 0 0 0 0 0 0 0 0 0 0 0 0 0 0 0 0 0 0 0 0 0 0 0 0 0 0 0 0 0 0 0 0 0 0 0 0 0 0 0 0 0
0 0 0 0 0 0 0 0 0 0 0 0 0 0 0 0 0 0 0 0 0 0 0 0 0 0 0 0 0 0 0 0 0 0 0 0 0 0 0 0 0 0 0 0 0 0 0 0 0
0 0 0 0 0 0 0 0 0 0 0 0 0 0 0 0 0 0 0 0 0 0 0 0 0 0 0 0 0 0 0 0 0 0 0 0 0 0 0 0 0 0 0 0 0 0 0 0 0
0 0 0 0 0 0 0 0 0 0 0 0 0 0 0 0 0 0 0 0 0 0 0 0 0 0 0 0 0 0 0 0 0 0 0 0 0 0 0 0 0 0 0 0 0 0 0 0 0
0 0 0 0 0 0 0 0 0 0 0 0 0 0 0 0 0 0 0 0 0 0 0 0 0 0 0 0 0 0 0 0 0 0 0 0 0 0 0 0 0 0 0 0 0 0 0 0 0
0 0 0 0 0 0 0 0 0 0 0 0 0 0 0 0 0 0 0 0 1 0 0 0 0 0 0 0 0 0 0 0 0 0 0 0 0 0 0 0 0 0 0 0 0 0 0 0 0
0 0 0 0 0 0 0 0 0 0 0 0 0 0 0 0 0 0 0 0 0 1 0 0 0 0 0 0 0 0 0 0 0 0 0 0 0 0 0 0 0 0 0 0 0 0 0 0 0
0 0 0 0 0 0 0 0 0 0 0 0 0 0 0 0 0 0 0 0 0 1 1 0 0 0 0 0 0 0 0 0 0 0 0 0 0 0 0 0 0 0 0 0 0 0 0 0 0
0 0 0 0 0 0 0 0 0 0 0 0 0 0 0 0 0 0 0 0 0 0 2 1 1 0 0 0 0 0 0 0 0 0 0 0 0 0 0 0 0 0 0 0 0 0 0 0 0
0 0 0 0 0 0 0 0 0 0 0 0 0 0 0 0 0 0 0 0 0 0 1 1 1 1 1 0 1 0 1 1 1 0 0 0 0 0 0 0 0 0 0 0 0 0 0 0 0
0 0 0 0 0 0 0 0 0 0 0 0 0 0 0 0 0 0 0 0 0 0 1 1 1 2 3 3 2 2 1 0 0 0 0 0 0 0 0 0 0 0 0 0 0 0 0 0 0
0 0 0 0 0 0 0 0 0 0 0 0 0 0 0 0 0 0 0 0 0 1 1 2 2 3 3 3 3 2 1 0 0 0 0 0 0 0 0 0 0 0 0 0 0 0 0 0 0
0 0 0 0 0 0 0 0 0 0 0 0 0 0 0 0 0 0 0 0 0 0 1 2 2 2 2 2 2 2 0 0 0 0 0 0 0 0 0 0 0 0 0 0 0 0 0 0 0
0 0 0 0 0 0 0 0 0 0 0 0 0 0 0 0 0 0 0 0 0 0 0 1 1 1 1 1 1 1 0 0 0 0 0 0 0 0 0 0 0 0 0 0 0 0 0 0 0
0 0 0 0 0 0 0 0 0 0 0 0 0 0 0 0 0 0 0 0 0 0 0 0 0 0 0 0 1 1 0 0 0 0 0 0 0 0 0 0 0 0 0 0 0 0 0 0 0
0 0 0 0 0 0 0 0 0 0 0 0 0 0 0 0 0 0 0 0 0 0 0 0 0 0 0 0 0 0 0 0 0 0 0 0 0 0 0 0 0 0 0 0 0 0 0 0 0
0 0 0 0 0 0 0 0 0 0 0 0 0 0 0 0 0 0 0 0 0 0 0 0 0 0 -0 0 0 0 -0 0 0 0 0 0 0 0 -0 0 0 0 0 0 0 0 0 0 0
Wind_Speed_500mb
9 2 1 3 7 9 7 9 3 3 8 8 21 14 18 18 14 9 12 26 67 73 70 63 58 55 51 46 42 39 37 33 31 30 28 25 22 20 17 16 14 12 11 11 10 8 6 5 7
7 4 2 4 8 5 10 8 5 9 7 12 19 8 5 14 41 23 27 6 71 74 72 67 62 56 52 49 44 39 36 33 31 29 28 25 20 17 15 12 9 8 8 9 9 7 5 3 3
5 7 3 8 7 9 7 8 10 8 24 35 4 9 11 7 16 28 22 20 76 78 73 69 63 58 53 50 46 42 38 35 32 29 27 23 19 14 11 9 6 6 7 8 9 7 3 3 4
7 7 7 8 11 12 9 3 8 10 33 30 9 7 5 11 10 19 33 40 75 80 74 71 65 57 53 49 46 42 39 36 32 28 24 20 16 12 7 6 4 5 6 9 9 8 6 6 8
13 4 6 4 10 11 10 8 12 7 16 32 27 10 8 12 20 10 27 59 75 80 74 70 65 58 52 49 46 42 39 36 32 27 23 19 14 10 5 2 4 5 6 5 4 4 4 6 7
7 5 5 9 9 9 13 13 10 10 23 41 9 3 7 13 17 7 28 65 72 74 72 67 62 58 52 47 44 41 38 35 31 28 23 19 14 9 4 2 3 4 2 3 1 2 4 5 3
12 8 9 7 6 10 8 4 6 11 23 14 8 1 3 9 24 15 41 63 73 74 74 70 64 59 53 47 44 41 37 34 30 26 23 19 14 9 4 5 5 1 3 2 5 6 8 5 3
7 9 7 8 8 11 6 15 12 12 23 32 7 8 8 18 33 28 43 63 75 78 76 74 67 63 57 52 45 41 38 34 31 27 23 19 14 9 7 8 3 1 4 7 9 7 4 1 1
11 8 5 8 13 11 10 8 9 18 25 33 13 10 12 27 45 38 47 63 74 78 80 77 72 66 60 54 48 44 41 38 34 29 25 20 16 12 13 9 5 8 4 7 8 5 2 6 4
9 8 18 12 9 6 16 15 29 15 40 11 23 9 16 38 40 43 56 71 76 81 82 79 75 70 65 59 54 49 46 42 36 32 28 23 19 18 14 12 10 7 2 2 5 3 5 12 8
12 12 13 13 23 21 14 16 12 5 15 36 33 12 24 35 38 40 49 66 73 81 79 79 77 73 69 64 59 54 49 45 40 36 32 28 22 22 19 13 9 5 1 3 4 5 9 4 3
5 16 15 9 22 6 10 13 19 19 35 42 35 39 38 41 47 49 51 58 68 76 77 78 81 77 71 65 61 56 53 48 44 40 37 33 27 27 22 15 10 4 0 3 7 10 11 2 4
10 10 20 31 31 26 25 23 21 29 35 35 19 20 27 41 45 48 53 56 56 66 71 75 78 77 72 70 66 61 54 52 47 43 40 37 32 30 26 23 17 9 6 6 9 12 8 3 4
13 11 16 16 22 14 11 13 3 20 25 20 12 25 24 29 37 38 50 63 62 66 65 68 75 75 72 75 71 65 59 55 51 47 44 41 36 35 32 26 20 15 9 10 13 12 7 5 4
4 8 12 7 3 6 10 7 10 25 18 23 22 31 33 34 38 37 42 52 60 67 66 70 65 72 67 70 73 69 64 59 56 50 47 45 41 39 37 32 24 19 14 16 17 13 11 8 8
5 9 4 9 4 7 11 13 15 17 20 25 24 27 36 45 54 53 52 53 55 63 70 68 69 71 68 68 65 70 68 62 57 53 50 50 46 44 42 36 31 25 21 22 21 16 14 11 11
12 5 4 12 8 3 6 10 16 43 26 24 20 22 31 40 43 47 52 51 56 55 64 70 78 75 74 68 57 62 71 68 61 57 53 53 49 48 45 37 30 28 25 27 23 20 17 15 15
8 1 6 8 9 10 4 17 14 38 28 28 20 17 23 29 32 38 52 57 62 68 70 67 81 83 76 73 67 68 73 70 63 58 57 56 52 50 46 39 35 32 30 29 26 22 17 16 17
7 5 10 10 12 4 12 12 23 33 24 29 16 24 25 26 28 25 43 48 51 63 74 80 87 92 85 83 77 77 80 73 67 62 59 61 53 49 48 42 42 37 33 29 28 24 20 22 25
7 6 14 18 3 11 11 17 20 15 18 6 20 20 25 27 28 24 18 34 52 60 59 76 86 99 93 91 83 81 79 73 68 63 63 65 59 48 50 46 47 40 36 36 31 24 22 25 31
9 9 10 17 9 8 4 12 10 10 1 22 30 23 24 29 34 33 18 25 31 54 68 73 80 93 99 96 92 86 85 77 75 76 73 72 66 52 47 46 48 43 38 37 32 27 22 22 30
7 16 17 12 5 5 5 7 11 13 5 17 43 43 38 30 26 30 31 27 33 37 42 59 82 94 98 103 101 99 97 91 91 81 78 76 66 57 51 42 49 46 42 40 35 29 26 22 22
17 10 14 6 8 6 7 9 14 6 7 14 32 43 39 30 23 25 29 29 32 39 52 65 71 84 94 105 106 101 98 92 90 81 85 73 70 64 57 50 54 51 46 41 37 34 29 25 23
6 3 9 9 7 2 12 11 6 9 11 11 31 36 41 41 34 26 18 17 20 35 45 56 69 73 85 93 100 106 103 100 87 88 86 77 74 70 68 62 57 51 48 45 39 33 30 25 22
13 10 4 7 4 10 7 7 4 7 8 10 18 34 39 49 52 47 38 25 16 10 30 45 60 61 66 80 88 98 100 98 92 96 77 76 77 76 72 65 55 49 47 43 41 36 32 29 24
9 5 9 10 5 5 11 1 2 4 12 18 20 23 42 56 63 65 59 45 33 20 4 19 30 44 55 62 70 78 87 84 87 88 84 77 80 72 74 69 53 49 50 48 43 38 33 30 27
6 9 3 10 5 6 3 6 3 2 8 16 19 26 35 42 49 53 59 59 54 33 21 8 12 28 40 50 54 65 74 69 77 74 72 75 80 75 80 68 56 51 51 48 45 41 36 34 29
11 5 1 5 5 3 6 6 9 4 11 13 16 28 31 32 32 34 38 43 49 46 39 39 35 25 12 2 21 35 45 49 70 59 54 58 54 71 80 69 52 51 50 53 48 42 41 39 36
8 5 8 5 6 9 3 6 7 5 6 11 16 20 24 26 22 23 29 31 31 28 28 31 35 41 39 34 23 11 20 31 51 47 56 64 62 75 63 55 31 47 55 55 47 47 48 45 43
6 4 5 7 6 4 7 8 8 9 14 21 34 38 38 28 24 21 21 23 16 21 33 37 34 33 32 28 28 33 26 21 27 41 44 55 45 35 36 37 75 69 68 56 56 54 55 51 52
Wind_Direction_500mb
231 281 34 356 43 57 284 269 263 294 307 206 165 171 191 182 174 212 165 193 185 179 173 173 171 171 171 168 167 163 159 158 156 152 148 146 143 134 121 113 109 108 104 99 94 89 85 58 65
214 205 165 93 85 29 278 274 204 220 235 0 217 212 163 237 225 266 264 215 180 181 176 175 173 172 175 172 170 169 166 164 161 158 155 151 147 137 128 122 115 106 100 93 87 90 106 118 77
208 183 182 95 108 199 219 262 187 243 298 297 178 196 205 272 249 233 262 191 179 183 180 178 175 175 178 177 174 173 173 171 169 166 161 154 149 142 135 123 109 97 94 87 76 69 71 109 116
178 163 84 106 212 250 216 70 358 326 317 304 262 257 207 274 285 249 233 190 183 185 183 181 177 179 181 182 180 178 179 177 176 172 165 159 152 147 138 114 100 101 91 84 83 84 80 80 102
183 142 70 136 243 269 260 290 343 333 298 288 259 219 193 302 284 294 207 186 186 185 186 185 180 180 186 185 185 184 183 182 180 175 171 164 159 154 137 100 102 108 104 98 108 112 97 100 115
134 108 80 223 245 259 288 305 337 330 316 312 230 215 232 275 261 253 187 182 186 187 189 188 186 184 189 192 191 190 188 188 184 178 175 171 167 162 160 143 117 102 6 320 258 154 134 136 119
139 96 206 195 249 292 248 31 360 320 311 317 293 9 253 228 216 238 186 186 187 191 192 191 192 188 192 197 197 196 195 193 191 185 182 177 174 169 187 156 136 21 340 33 104 110 114 113 122
161 97 141 232 197 262 264 345 323 337 304 325 215 217 260 219 202 227 197 194 191 194 197 195 196 193 196 198 201 202 200 198 196 193 190 185 179 182 188 159 155 115 102 78 86 117 148 24 348
151 71 202 238 158 244 294 9 308 318 295 326 272 274 274 190 197 212 212 198 197 198 200 199 199 199 200 202 203 205 206 204 200 198 197 192 187 191 175 182 167 152 120 85 74 96 273 302 313
130 134 211 216 192 234 294 299 313 331 314 337 332 265 252 214 211 208 205 201 200 203 204 204 202 203 203 205 208 209 209 208 205 204 203 199 196 186 177 160 149 153 131 66 44 106 299 295 285
178 199 201 231 247 266 272 293 294 260 304 299 302 271 222 225 234 228 207 205 203 206 207 208 208 208 210 209 210 213 215 213 211 208 205 204 201 189 180 167 154 158 110 59 5 349 340 328 314
172 235 214 246 269 231 256 288 290 234 275 305 297 287 241 223 231 218 216 210 207 210 213 214 212 214 215 218 218 218 219 218 217 213 209 208 205 198 192 194 190 202 75 1 342 341 335 305 328
177 254 251 264 279 274 273 274 259 281 297 309 281 272 234 240 245 237 225 217 213 217 222 221 221 219 219 223 223 223 224 223 222 218 216 213 212 206 206 212 227 226 253 292 313 335 336 326 287
193 240 283 296 279 261 198 273 236 290 307 300 261 230 246 240 242 231 224 219 216 217 225 222 224 221 224 227 226 225 226 225 223 221 222 219 216 211 212 217 222 226 257 296 305 308 301 294 281
274 302 331 252 265 273 186 328 238 293 312 305 290 239 233 247 238 237 254 239 231 230 223 224 221 219 226 232 230 228 229 226 225 223 222 224 221 217 216 222 226 228 252 279 287 275 262 247 242
45 48 50 288 301 334 144 262 278 317 331 312 295 273 260 252 238 254 256 250 249 242 234 227 225 222 228 232 230 230 230 228 229 227 223 226 225 221 220 221 229 228 246 271 269 260 246 224 219
7 237 245 316 333 13 54 270 270 310 325 317 308 312 298 276 265 260 255 252 247 252 241 233 229 229 231 232 225 228 231 230 228 228 226 226 227 224 220 220 224 231 246 265 254 253 235 218 200
214 221 258 225 278 14 305 266 281 306 326 309 314 330 319 308 310 278 256 252 247 247 249 242 237 231 232 231 227 223 228 229 227 225 226 225 224 219 221 224 223 232 247 256 245 243 228 211 201
177 196 257 256 221 245 256 267 283 301 309 293 288 351 340 341 339 297 244 250 253 247 245 244 236 234 229 229 226 222 224 221 219 221 222 217 214 217 219 224 224 232 252 251 242 236 223 208 202
168 193 261 280 214 161 271 267 271 270 258 347 29 20 4 348 352 355 248 240 246 247 247 245 238 233 232 229 229 225 224 220 220 222 220 213 214 213 217 225 227 234 250 240 237 229 222 211 203
192 188 226 232 342 228 254 320 324 314 170 67 38 32 25 10 349 348 327 236 248 248 244 243 242 235 233 230 227 226 227 225 221 222 218 216 217 219 216 223 230 238 247 238 238 229 225 222 209
245 212 234 227 70 268 117 274 310 280 306 28 15 15 12 9 356 340 326 288 235 242 251 251 245 241 238 230 227 227 226 223 223 222 220 219 219 222 223 225 231 241 245 231 231 231 224 220 219
225 172 201 216 170 89 319 108 262 288 65 357 359 1 8 13 6 344 332 307 272 236 243 251 247 243 238 233 227 227 226 231 232 227 223 223 221 224 225 228 233 242 238 227 230 226 220 222 223
306 281 63 58 103 117 232 165 314 360 318 338 350 10 22 22 29 23 8 314 276 245 239 246 250 247 240 237 230 230 231 229 233 234 228 227 222 223 223 226 234 246 235 228 228 222 218 221 221
55 70 317 327 16 219 294 83 268 339 20 0 333 357 29 40 41 33 23 24 4 291 252 247 250 248 243 240 236 234 235 234 235 238 233 228 219 222 224 227 232 239 230 230 229 222 221 220 223
49 111 161 210 198 283 296 53 84 93 39 7 2 8 50 52 51 45 40 36 34 30 347 237 243 243 236 233 233 234 237 239 241 240 241 235 222 227 226 225 228 228 227 227 227 228 227 221 222
0 53 166 102 28 96 288 77 60 336 3 7 360 31 46 50 53 51 49 46 43 36 47 76 225 234 235 233 232 235 234 244 244 240 240 233 224 232 228 223 222 222 223 227 230 231 233 230 226
54 343 90 19 189 238 292 205 150 347 345 340 356 347 347 12 36 43 48 51 57 59 46 57 60 58 71 127 239 236 231 242 260 255 271 245 234 233 232 223 222 226 224 229 225 233 231 233 231
353 351 37 99 119 164 188 258 180 217 287 294 315 339 335 343 8 40 50 41 41 52 58 62 63 55 53 45 27 351 273 243 234 226 236 253 251 248 250 234 249 267 241 230 236 235 234 236 233
143 189 162 125 252 242 154 255 62 17 336 326 325 337 333 308 319 307 330 346 15 46 60 52 49 38 26 6 350 352 331 287 247 237 217 234 249 244 309 270 262 237 239 235 223 239 240 235 235
Wind_Speed_850mb
9 2 1 3 7 9 7 9 3 3 8 8 21 14 18 18 14 9 12 26 67 73 70 63 58 55 51 46 42 39 37 33 31 30 28 25 22 20 17 16 14 12 11 11 10 8 6 5 7
7 4 2 4 8 5 10 8 5 9 7 12 19 8 5 14 41 23 27 6 71 74 72 67 62 56 52 49 44 39 36 33 31 29 28 25 20 17 15 12 9 8 8 9 9 7 5 3 3
5 7 3 8 7 9 7 8 10 8 24 35 4 9 11 7 16 28 22 20 76 78 73 69 63 58 53 50 46 42 38 35 32 29 27 23 19 14 11 9 6 6 7 8 9 7 3 3 4
7 7 7 8 11 12 9 3 8 10 33 30 9 7 5 11 10 19 33 40 75 80 74 71 65 57 53 49 46 42 39 36 32 28 24 20 16 12 7 6 4 5 6 9 9 8 6 6 8
13 4 6 4 10 11 10 8 12 7 16 32 27 10 8 12 20 10 27 59 75 80 74 70 65 58 52 49 46 42 39 36 32 27 23 19 14 10 5 2 4 5 6 5 4 4 4 6 7
7 5 5 9 9 9 13 13 10 10 23 41 9 3 7 13 17 7 28 65 72 74 72 67 62 58 52 47 44 41 38 35 31 28 23 19 14 9 4 2 3 4 2 3 1 2 4 5 3
12 8 9 7 6 10 8 4 6 11 23 14 8 1 3 9 24 15 41 63 73 74 74 70 64 59 53 47 44 41 37 34 30 26 23 19 14 9 4 5 5 1 3 2 5 6 8 5 3
7 9 7 8 8 11 6 15 12 12 23 32 7 8 8 18 33 28 43 63 75 78 76 74 67 63 57 52 45 41 38 34 31 27 23 19 14 9 7 8 3 1 4 7 9 7 4 1 1
11 8 5 8 13 11 10 8 9 18 25 33 13 10 12 27 45 38 47 63 74 78 80 77 72 66 60 54 48 44 41 38 34 29 25 20 16 12 13 9 5 8 4 7 8 5 2 6 4
9 8 18 12 9 6 16 15 29 15 40 11 23 9 16 38 40 43 56 71 76 81 82 79 75 70 65 59 54 49 46 42 36 32 28 23 19 18 14 12 10 7 2 2 5 3 5 12 8
12 12 13 13 23 21 14 16 12 5 15 36 33 12 24 35 38 40 49 66 73 81 79 79 77 73 69 64 59 54 49 45 40 36 32 28 22 22 19 13 9 5 1 3 4 5 9 4 3
5 16 15 9 22 6 10 13 19 19 35 42 35 39 38 41 47 49 51 58 68 76 77 78 81 77 71 65 61 56 53 48 44 40 37 33 27 27 22 15 10 4 0 3 7 10 11 2 4
10 10 20 31 31 26 25 23 21 29 35 35 19 20 27 41 45 48 53 56 56 66 71 75 78 77 72 70 66 61 54 52 47 43 40 37 32 30 26 23 17 9 6 6 9 12 8 3 4
13 11 16 16 22 14 11 13 3 20 25 20 12 25 24 29 37 38 50 63 62 66 65 68 75 75 72 75 71 65 59 55 51 47 44 41 36 35 32 26 20 15 9 10 13 12 7 5 4
4 8 12 7 3 6 10 7 10 25 18 23 22 31 33 34 38 37 42 52 60 67 66 70 65 72 67 70 73 69 64 59 56 50 47 45 41 39 37 32 24 19 14 16 17 13 11 8 8
5 9 4 9 4 7 11 13 15 17 20 25 24 27 36 45 54 53 52 53 55 63 70 68 69 71 68 68 65 70 68 62 57 53 50 50 46 44 42 36 31 25 21 22 21 16 14 11 11
12 5 4 12 8 3 6 10 16 43 26 24 20 22 31 40 43 47 52 51 56 55 64 70 78 75 74 68 57 62 71 68 61 57 53 53 49 48 45 37 30 28 25 27 23 20 17 15 15
8 1 6 8 9 10 4 17 14 38 28 28 20 17 23 29 32 38 52 57 62 68 70 67 81 83 76 73 67 68 73 70 63 58 57 56 52 50 46 39 35 32 30 29 26 22 17 16 17
7 5 10 10 12 4 12 12 23 33 24 29 16 24 25 26 28 25 43 48 51 63 74 80 87 92 85 83 77 77 80 73 67 62 59 61 53 49 48 42 42 37 33 29 28 24 20 22 25
7 6 14 18 3 11 11 17 20 15 18 6 20 20 25 27 28 24 18 34 52 60 59 76 86 99 93 91 83 81 79 73 68 63 63 65 59 48 50 46 47 40 36 36 31 24 22 25 31
9 9 10 17 9 8 4 12 10 10 1 22 30 23 24 29 34 33 18 25 31 54 68 73 80 93 99 96 92 86 85 77 75 76 73 72 66 52 47 46 48 43 38 37 32 27 22 22 30
7 16 17 12 5 5 5 7 11 13 5 17 43 43 38 30 26 30 31 27 33 37 42 59 82 94 98 103 101 99 97 91 91 81 78 76 66 57 51 42 49 46 42 40 35 29 26 22 22
17 10 14 6 8 6 7 9 14 6 7 14 32 43 39 30 23 25 29 29 32 39 52 65 71 84 94 105 106 101 98 92 90 81 85 73 70 64 57 50 54 51 46 41 37 34 29 25 23
6 3 9 9 7 2 12 11 6 9 11 11 31 36 41 41 34 26 18 17 20 35 45 56 69 73 85 93 100 106 103 100 87 88 86 77 74 70 68 62 57 51 48 45 39 33 30 25 22
13 10 4 7 4 10 7 7 4 7 8 10 18 34 39 49 52 47 38 25 16 10 30 45 60 61 66 80 88 98 100 98 92 96 77 76 77 76 72 65 55 49 47 43 41 36 32 29 24
9 5 9 10 5 5 11 1 2 4 12 18 20 23 42 56 63 65 59 45 33 20 4 19 30 44 55 62 70 78 87 84 87 88 84 77 80 72 74 69 53 49 50 48 43 38 33 30 27
6 9 3 10 5 6 3 6 3 2 8 16 19 26 35 42 49 53 59 59 54 33 21 8 12 28 40 50 54 65 74 69 77 74 72 75 80 75 80 68 56 51 51 48 45 41 36 34 29
11 5 1 5 5 3 6 6 9 4 11 13 16 28 31 32 32 34 38 43 49 46 39 39 35 25 12 2 21 35 45 49 70 59 54 58 54 71 80 69 52 51 50 53 48 42 41 39 36
8 5 8 5 6 9 3 6 7 5 6 11 16 20 24 26 22 23 29 31 31 28 28 31 35 41 39 34 23 11 20 31 51 47 56 64 62 75 63 55 31 47 55 55 47 47 48 45 43
6 4 5 7 6 4 7 8 8 9 14 21 34 38 38 28 24 21 21 23 16 21 33 37 34 33 32 28 28 33 26 21 27 41 44 55 45 35 36 37 75 69 68 56 56 54 55 51 52
Wind_Direction_850mb
231 281 34 356 43 57 284 269 263 294 307 206 165 171 191 182 174 212 165 193 185 179 173 173 171 171 171 168 167 163 159 158 156 152 148 146 143 134 121 113 109 108 104 99 94 89 85 58 65
214 205 165 93 85 29 278 274 204 220 235 0 217 212 163 237 225 266 264 215 180 181 176 175 173 172 175 172 170 169 166 164 161 158 155 151 147 137 128 122 115 106 100 93 87 90 106 118 77
208 183 182 95 108 199 219 262 187 243 298 297 178 196 205 272 249 233 262 191 179 183 180 178 175 175 178 177 174 173 173 171 169 166 161 154 149 142 135 123 109 97 94 87 76 69 71 109 116
178 163 84 106 212 250 216 70 358 326 317 304 262 257 207 274 285 249 233 190 183 185 183 181 177 179 181 182 180 178 179 177 176 172 165 159 152 147 138 114 100 101 91 84 83 84 80 80 102
183 142 70 136 243 269 260 290 343 333 298 288 259 219 193 302 284 294 207 186 186 185 186 185 180 180 186 185 185 184 183 182 180 175 171 164 159 154 137 100 102 108 104 98 108 112 97 100 115
134 108 80 223 245 259 288 305 337 330 316 312 230 215 232 275 261 253 187 182 186 187 189 188 186 184 189 192 191 190 188 188 184 178 175 171 167 162 160 143 117 102 6 320 258 154 134 136 119
139 96 206 195 249 292 248 31 360 320 311 317 293 9 253 228 216 238 186 186 187 191 192 191 192 188 192 197 197 196 195 193 191 185 182 177 174 169 187 156 136 21 340 33 104 110 114 113 122
161 97 141 232 197 262 264 345 323 337 304 325 215 217 260 219 202 227 197 194 191 194 197 195 196 193 196 198 201 202 200 198 196 193 190 185 179 182 188 159 155 115 102 78 86 117 148 24 348
151 71 202 238 158 244 294 9 308 318 295 326 272 274 274 190 197 212 212 198 197 198 200 199 199 199 200 202 203 205 206 204 200 198 197 192 187 191 175 182 167 152 120 85 74 96 273 302 313
130 134 211 216 192 234 294 299 313 331 314 337 332 265 252 214 211 208 205 201 200 203 204 204 202 203 203 205 208 209 209 208 205 204 203 199 196 186 177 160 149 153 131 66 44 106 299 295 285
178 199 201 231 247 266 272 293 294 260 304 299 302 271 222 225 234 228 207 205 203 206 207 208 208 208 210 209 210 213 215 213 211 208 205 204 201 189 180 167 154 158 110 59 5 349 340 328 314
172 235 214 246 269 231 256 288 290 234 275 305 297 287 241 223 231 218 216 210 207 210 213 214 212 214 215 218 218 218 219 218 217 213 209 208 205 198 192 194 190 202 75 1 342 341 335 305 328
177 254 251 264 279 274 273 274 259 281 297 309 281 272 234 240 245 237 225 217 213 217 222 221 221 219 219 223 223 223 224 223 222 218 216 213 212 206 206 212 227 226 253 292 313 335 336 326 287
193 240 283 296 279 261 198 273 236 290 307 300 261 230 246 240 242 231 224 219 216 217 225 222 224 221 224 227 226 225 226 225 223 221 222 219 216 211 212 217 222 226 257 296 305 308 301 294 281
274 302 331 252 265 273 186 328 238 293 312 305 290 239 233 247 238 237 254 239 231 230 223 224 221 219 226 232 230 228 229 226 225 223 222 224 221 217 216 222 226 228 252 279 287 275 262 247 242
45 48 50 288 301 334 144 262 278 317 331 312 295 273 260 252 238 254 256 250 249 242 234 227 225 222 228 232 230 230 230 228 229 227 223 226 225 221 220 221 229 228 246 271 269 260 246 224 219
7 237 245 316 333 13 54 270 270 310 325 317 308 312 298 276 265 260 255 252 247 252 241 233 229 229 231 232 225 228 231 230 228 228 226 226 227 224 220 220 224 231 246 265 254 253 235 218 200
214 221 258 225 278 14 305 266 281 306 326 309 314 330 319 308 310 278 256 252 247 247 249 242 237 231 232 231 227 223 228 229 227 225 226 225 224 219 221 224 223 232 247 256 245 243 228 211 201
177 196 257 256 221 245 256 267 283 301 309 293 288 351 340 341 339 297 244 250 253 247 245 244 236 234 229 229 226 222 224 221 219 221 222 217 214 217 219 224 224 232 252 251 242 236 223 208 202
168 193 261 280 214 161 271 267 271 270 258 347 29 20 4 348 352 355 248 240 246 247 247 245 238 233 232 229 229 225 224 220 220 222 220 213 214 213 217 225 227 234 250 240 237 229 222 211 203
192 188 226 232 342 228 254 320 324 314 170 67 38 32 25 10 349 348 327 236 248 248 244 243 242 235 233 230 227 226 227 225 221 222 218 216 217 219 216 223 230 238 247 238 238 229 225 222 209
245 212 234 227 70 268 117 274 310 280 306 28 15 15 12 9 356 340 326 288 235 242 251 251 245 241 238 230 227 227 226 223 223 222 220 219 219 222 223 225 231 241 245 231 231 231 224 220 219
225 172 201 216 170 89 319 108 262 288 65 357 359 1 8 13 6 344 332 307 272 236 243 251 247 243 238 233 227 227 226 231 232 227 223 223 221 224 225 228 233 242 238 227 230 226 220 222 223
306 281 63 58 103 117 232 165 314 360 318 338 350 10 22 22 29 23 8 314 276 245 239 246 250 247 240 237 230 230 231 229 233 234 228 227 222 223 223 226 234 246 235 228 228 222 218 221 221
55 70 317 327 16 219 294 83 268 339 20 0 333 357 29 40 41 33 23 24 4 291 252 247 250 248 243 240 236 234 235 234 235 238 233 228 219 222 224 227 232 239 230 230 229 222 221 220 223
49 111 161 210 198 283 296 53 84 93 39 7 2 8 50 52 51 45 40 36 34 30 347 237 243 243 236 233 233 234 237 239 241 240 241 235 222 227 226 225 228 228 227 227 227 228 227 221 222
0 53 166 102 28 96 288 77 60 336 3 7 360 31 46 50 53 51 49 46 43 36 47 76 225 234 235 233 232 235 234 244 244 240 240 233 224 232 228 223 222 222 223 227 230 231 233 230 226
54 343 90 19 189 238 292 205 150 347 345 340 356 347 347 12 36 43 48 51 57 59 46 57 60 58 71 127 239 236 231 242 260 255 271 245 234 233 232 223 222 226 224 229 225 233 231 233 231
353 351 37 99 119 164 188 258 180 217 287 294 315 339 335 343 8 40 50 41 41 52 58 62 63 55 53 45 27 351 273 243 234 226 236 253 251 248 250 234 249 267 241 230 236 235 234 236 233
143 189 162 125 252 242 154 255 62 17 336 326 325 337 333 308 319 307 330 346 15 46 60 52 49 38 26 6 350 352 331 287 247 237 217 234 249 244 309 270 262 237 239 235 223 239 240 235 235